Regional Weather Roundup
Issued by NWS Goodland, KS

Home | Current Version | Previous Version | Graphics & Text | Print | Product List | Glossary On
Versions: 1 2 3 4 5 6 7 8 9 10 11 12 13 14 15 16 17 18 19 20 21 22 23 24 25 26 27 28 29 30 31 32 33 34 35 36 37 38 39 40 41 42 43 44 45 46 47 48 49 50
520
ASUS43 KGLD 241059
RWRGLD

GOODLAND FORECAST AREA HOURLY WEATHER ROUNDUP
NATIONAL WEATHER SERVICE GOODLAND KS
500 AM MDT SUN JUL 24 2016

...OFFICIAL OBSERVATIONS...

CITY           SKY/WX    TMP DP  RH WIND       PRES   REMARKS
GOODLAND KS    CLOUDY    70  64  81 E9        30.03S
HILL CITY KS   CLOUDY    77  69  76 N14G21    29.93R
IMPERIAL NEB   CLOUDY    72  56  57 CALM      30.03R
MCCOOK NEB     CLOUDY    70  62  76 SE5       29.98R
AKRON CO       CLOUDY    67  52  58 SE5       30.13R
BURLINGTON CO  CLOUDY    71  59  65 NE7       30.05F
LIMON CO       CLOUDY    58  55  90 N6        30.17R
$$

...UNOFFICIAL OBSERVATIONS...

CITY           SKY/WX    TMP DP  RH WIND       PRES   REMARKS
COLBY KS       LGT RAIN  73  68  83 E7        30.04R
LENORA KS        N/A     73  32  22 MISG        N/A
NORTON KS      CLEAR     73  63  68 NE6       29.96R
YUMA CO          N/A     65  56  73 CALM        N/A
$$




USA.gov is the U.S. government's official web portal to all federal, state and local government web resources and services.